| time (UTC) | temp C | wind direction | speed KPH | gust KPH | rain 1hr cm | rain 24hr cm | rain mn cm | humidity % | barometer mb |
| 20260507011541 | 21 | 155 | 9.7 | 17.7 | 0.00 | 0.00 | 0.00 | 36 | 1015.2 |
| 20260507010037 | 21 | 121 | 6.4 | 20.9 | 0.00 | 0.00 | 0.00 | 37 | 1015.1 |
| 20260507004532 | 22 | 134 | 9.7 | 17.7 | 0.00 | 0.00 | 0.00 | 47 | 1015.1 |
| 20260507003031 | 22 | 146 | 1.6 | 14.5 | 0.00 | 0.00 | 0.00 | 53 | 1014.9 |
| 20260507001537 | 22 | 125 | 4.8 | 16.1 | 0.00 | 0.00 | 0.00 | 49 | 1014.7 |
| 20260507000031 | 22 | 123 | 9.7 | 25.7 | 0.00 | 0.00 | 0.00 | 47 | 1014.6 |
| 20260506234621 | 23 | 98 | 8.0 | 20.9 | 0.00 | 0.00 | 0.00 | 45 | 1014.4 |
| 20260506233105 | 24 | 81 | 1.6 | 12.9 | 0.00 | 0.00 | 0.00 | 41 | 1014.3 |
| 20260506231558 | 24 | 107 | 1.6 | 6.4 | 0.00 | 0.00 | 0.00 | 37 | 1014.3 |
| 20260506230055 | 25 | 306 | 0.0 | 4.8 | 0.00 | 0.00 | 0.00 | 36 | 1014.3 |
| 20260506224556 | 24 | 261 | 1.6 | 6.4 | 0.00 | 0.00 | 0.00 | 35 | 1014.4 |
| 20260506223059 | 25 | 74 | 1.6 | 9.7 | 0.00 | 0.00 | 0.00 | 37 | 1014.6 |
| 20260506221523 | 25 | 113 | 0.0 | 6.4 | 0.00 | 0.00 | 0.00 | 35 | 1014.7 |
| 20260506220023 | 25 | 78 | 4.8 | 16.1 | 0.00 | 0.00 | 0.00 | 35 | 1014.7 |
| 20260506214520 | 25 | 36 | 6.4 | 14.5 | 0.00 | 0.00 | 0.00 | 35 | 1014.9 |
| 20260506213020 | 25 | 321 | 1.6 | 16.1 | 0.00 | 0.00 | 0.00 | 35 | 1015.1 |
| 20260506211517 | 25 | 66 | 6.4 | 16.1 | 0.00 | 0.00 | 0.00 | 35 | 1015.3 |
| 20260506210016 | 24 | 44 | 8.0 | 16.1 | 0.00 | 0.00 | 0.00 | 35 | 1015.4 |
| 20260506204514 | 24 | 65 | 4.8 | 16.1 | 0.00 | 0.00 | 0.00 | 37 | 1015.5 |
| 20260506203013 | 24 | 335 | 8.0 | 19.3 | 0.00 | 0.00 | 0.00 | 37 | 1015.7 |
| 20260506201512 | 23 | 304 | 9.7 | 25.7 | 0.00 | 0.00 | 0.00 | 38 | 1015.8 |
| 20260506200011 | 23 | 57 | 6.4 | 20.9 | 0.00 | 0.00 | 0.00 | 38 | 1015.8 |
| 20260506194505 | 23 | 70 | 9.7 | 19.3 | 0.00 | 0.00 | 0.00 | 38 | 1016.2 |
| 20260506193002 | 23 | 340 | 4.8 | 16.1 | 0.00 | 0.00 | 0.00 | 40 | 1016.3 |
| 20260506191502 | 22 | 275 | 3.2 | 16.1 | 0.00 | 0.00 | 0.00 | 40 | 1016.5 |
| 20260506190100 | 22 | 54 | 8.0 | 16.1 | 0.00 | 0.00 | 0.00 | 40 | 1016.7 |
| 20260506184556 | 22 | 343 | 4.8 | 20.9 | 0.00 | 0.00 | 0.00 | 43 | 1016.9 |
| 20260506183057 | 22 | 11 | 8.0 | 19.3 | 0.00 | 0.00 | 0.00 | 40 | 1016.9 |
| 20260506181552 | 21 | 321 | 6.4 | 19.3 | 0.00 | 0.00 | 0.00 | 43 | 1017.0 |
| 20260506180051 | 21 | 53 | 8.0 | 20.9 | 0.00 | 0.00 | 0.00 | 40 | 1017.0 |
| 20260506174520 | 21 | 40 | 4.8 | 16.1 | 0.00 | 0.00 | 0.00 | 42 | 1016.9 |
| 20260506173016 | 20 | 83 | 4.8 | 16.1 | 0.00 | 0.00 | 0.00 | 43 | 1017.0 |
| 20260506171512 | 20 | 63 | 4.8 | 19.3 | 0.00 | 0.00 | 0.00 | 45 | 1017.2 |
| 20260506170011 | 19 | 67 | 3.2 | 11.3 | 0.00 | 0.00 | 0.00 | 47 | 1017.2 |
| 20260506164506 | 17 | 154 | 3.2 | 8.0 | 0.00 | 0.00 | 0.00 | 58 | 1017.3 |
| 20260506163008 | 17 | 173 | 0.0 | 6.4 | 0.00 | 0.00 | 0.00 | 56 | 1017.3 |
| 20260506161535 | 16 | 148 | 4.8 | 11.3 | 0.00 | 0.00 | 0.00 | 62 | 1017.4 |
| 20260506154624 | 14 | 164 | 3.2 | 8.0 | 0.00 | 0.00 | 0.00 | 64 | 1017.4 |
| 20260506153054 | 13 | 161 | 1.6 | 11.3 | 0.00 | 0.00 | 0.00 | 70 | 1017.3 |
| 20260506151552 | 13 | 101 | 3.2 | 11.3 | 0.00 | 0.00 | 0.00 | 65 | 1017.2 |
| 20260506150055 | 13 | 94 | 0.0 | 3.2 | 0.00 | 0.00 | 0.00 | 65 | 1017.1 |
| 20260506144600 | 12 | 93 | 0.0 | 1.6 | 0.00 | 0.00 | 0.00 | 65 | 1017.1 |
| 20260506144559 | 12 | 93 | 0.0 | 1.6 | 0.00 | 0.00 | 0.00 | 66 | 1017.1 |
| 20260506143050 | 12 | 96 | 0.0 | 3.2 | 0.00 | 0.00 | 0.00 | 68 | 1017.0 |
| 20260506141538 | 11 | 304 | 0.0 | 1.6 | 0.00 | 0.00 | 0.00 | 75 | 1017.0 |
| 20260506140053 | 8 | 264 | 0.0 | 1.6 | 0.00 | 0.00 | 0.00 | 81 | 1017.0 |
| 20260506134535 | 7 | 308 | 0.0 | 4.8 | 0.00 | 0.00 | 0.00 | 80 | 1017.0 |
| 20260506133031 | 7 | 321 | 0.0 | 3.2 | 0.00 | 0.00 | 0.00 | 79 | 1016.9 |
| 20260506131538 | 6 | 304 | 0.0 | 3.2 | 0.00 | 0.00 | 0.00 | 82 | 1016.7 |
| 20260506130025 | 6 | 279 | 0.0 | 1.6 | 0.00 | 0.00 | 0.00 | 79 | 1016.6 |
| 20260506124523 | 7 | 278 | 0.0 | 1.6 | 0.00 | 0.00 | 0.00 | 77 | 1016.5 |
| 20260506123034 | 6 | 319 | 0.0 | 1.6 | 0.00 | 0.00 | 0.00 | 80 | 1016.4 |
| 20260506121519 | 6 | 271 | 0.0 | 1.6 | 0.00 | 0.00 | 0.00 | 77 | 1016.4 |
| 20260506120048 | 7 | 271 | 0.0 | 1.6 | 0.00 | 0.00 | 0.00 | 76 | 1016.3 |
| 20260506114544 | 7 | 271 | 0.0 | 1.6 | 0.00 | 0.00 | 0.00 | 74 | 1016.1 |
| 20260506113042 | 8 | 271 | 0.0 | 0.0 | 0.00 | 0.00 | 0.00 | 70 | 1016.2 |
| 20260506111538 | 10 | 271 | 0.0 | 1.6 | 0.00 | 0.00 | 0.00 | 66 | 1016.0 |
| 20260506110041 | 10 | 297 | 0.0 | 4.8 | 0.00 | 0.00 | 0.00 | 66 | 1015.8 |
| 20260506104533 | 10 | 255 | 1.6 | 4.8 | 0.00 | 0.00 | 0.00 | 66 | 1015.8 |
| 20260506103029 | 10 | 306 | 1.6 | 4.8 | 0.00 | 0.00 | 0.00 | 64 | 1015.6 |
| 20260506101533 | 10 | 302 | 3.2 | 8.0 | 0.00 | 0.00 | 0.00 | 64 | 1015.4 |
| 20260506100027 | 10 | 295 | 3.2 | 11.3 | 0.00 | 0.00 | 0.00 | 64 | 1015.4 |
| 20260506094528 | 10 | 248 | 0.0 | 11.3 | 0.00 | 0.00 | 0.00 | 64 | 1015.3 |
| 20260506093031 | 9 | 305 | 1.6 | 6.4 | 0.00 | 0.00 | 0.00 | 68 | 1015.3 |
| 20260506091522 | 10 | 285 | 3.2 | 8.0 | 0.00 | 0.00 | 0.00 | 67 | 1015.4 |
| 20260506090020 | 10 | 257 | 3.2 | 8.0 | 0.00 | 0.00 | 0.00 | 67 | 1015.5 |
| 20260506084519 | 10 | 301 | 3.2 | 8.0 | 0.00 | 0.00 | 0.00 | 67 | 1015.4 |
| 20260506083021 | 10 | 292 | 1.6 | 9.7 | 0.00 | 0.00 | 0.00 | 68 | 1015.2 |
| 20260506081515 | 10 | 298 | 1.6 | 8.0 | 0.00 | 0.00 | 0.00 | 65 | 1015.1 |
| 20260506073005 | 10 | 285 | 1.6 | 4.8 | 0.00 | 0.00 | 0.00 | 66 | 1014.7 |
| 20260506071501 | 10 | 302 | 4.8 | 8.0 | 0.00 | 0.00 | 0.00 | 66 | 1014.7 |
| 20260506061551 | 10 | 302 | 1.6 | 4.8 | 0.00 | 0.00 | 0.00 | 70 | 1014.2 |
| 20260506044549 | 11 | 305 | 0.0 | 3.2 | 0.00 | 0.00 | 0.00 | 70 | 1013.6 |
| 20260506043039 | 12 | 331 | 1.6 | 4.8 | 0.00 | 0.00 | 0.00 | 70 | 1013.6 |
| 20260506041541 | 12 | 312 | 1.6 | 4.8 | 0.00 | 0.00 | 0.00 | 70 | 1013.5 |
| 20260506040036 | 14 | 302 | 1.6 | 6.4 | 0.00 | 0.00 | 0.00 | 65 | 1013.3 |
| 20260506034540 | 16 | 181 | 0.0 | 1.6 | 0.00 | 0.00 | 0.00 | 56 | 1013.2 |
| 20260506033006 | 16 | 136 | 0.0 | 4.8 | 0.00 | 0.00 | 0.00 | 55 | 1013.0 |
| 20260506031503 | 16 | 122 | 3.2 | 6.4 | 0.00 | 0.00 | 0.00 | 57 | 1012.8 |
| 20260506030058 | 17 | 138 | 3.2 | 12.9 | 0.00 | 0.00 | 0.00 | 56 | 1012.6 |
| 20260506024559 | 18 | 144 | 8.0 | 17.7 | 0.00 | 0.00 | 0.00 | 52 | 1012.4 |
| 20260506023104 | 19 | 113 | 6.4 | 22.5 | 0.00 | 0.00 | 0.00 | 49 | 1012.2 |
| 20260506021557 | 20 | 115 | 12.9 | 25.7 | 0.00 | 0.00 | 0.00 | 46 | 1012.0 |
| 20260506020058 | 20 | 107 | 14.5 | 27.4 | 0.00 | 0.00 | 0.00 | 43 | 1011.9 |
| 20260506014554 | 21 | 132 | 17.7 | 33.8 | 0.00 | 0.00 | 0.00 | 42 | 1011.7 |
| 20260506013107 | 21 | 123 | 12.9 | 27.4 | 0.00 | 0.00 | 0.00 | 40 | 1011.5 |